Tracking 22100 objects as of 20-Jan-2021
HD Live streaming from Space Station
objects crossing your sky now

RSP-00

Track RSP-00 now!
10-day predictions
RSP-00 is classified as:


NORAD ID: 43639
Int'l Code: 1998-067PP
Perigee: 309.6 km
Apogee: 317.3 km
Inclination: 51.6 °
Period: 90.6 minutes
Semi major axis: 6684 km
RCS: Unknown
Launch date: November 20, 1998
Source: (TBD)
Launch site: TYURATAM MISSILE AND SPACE COMPLEX (TTMTR)

Uplink (MHz):
Downlink (MHz): 145.890/436.930
Beacon (MHz): 145.890
Mode: 1k2AFSK 38k4 pi/4QPSK CW
Call sign: 8J1RSP
Status: Inactive

aabbcc
Your satellite tracking list
Your tracking list is empty




NASA's NSSDC Master Catalog

Two Line Element Set (TLE):
1 43639U 98067PP  21019.74694458  .00094573  00000-0  32927-3 0  9999
2 43639  51.6275 270.0695 0005768 158.2467 201.8784 15.88576662130896
Source of the keplerian elements: AFSPC